Location: Madougou
(14.7309°N, 3.1709°W)
Time: 05:05:01
(UTC+00:00)

Daily predictions for brighter satellites

Satellite Brightness Start Highest point End
(mag) Time Altitude Azimuth Time Altitude Azimuth Time Altitude Azimuth
ATLAS 5 CENTAUR R/B 4.2 02:43:44 55° SSE 02:43:44 55° SSE 03:13:52 10° ESE
BREEZE-M DEB (TANK) 4.2 03:44:30 70° E 03:44:30 70° E 04:01:52 10° SE
Ariane H10 4.0 03:52:29 45° S 03:52:29 45° S 03:56:01 10° ESE
Cosmos 2082 Rocket 3.5 04:02:32 31° NE 04:03:39 34° ENE 04:08:41 10° SE
Tsikada Rocket 4.4 04:04:41 10° S 04:10:41 58° E 04:16:45 10° NNE
COSMOS 2406 3.3 04:23:36 62° SSW 04:23:36 62° SSW 04:28:22 10° S
Meteor 2-3 Rocket 3.6 04:19:09 10° S 04:24:45 89° E 04:25:33 67° N
ATLAS 5 CENTAUR R/B 4.0 04:24:06 10° SSE 04:26:39 17° ESE 04:29:10 10° ENE
Cosmos 1833 Rocket 3.7 04:28:57 33° SSW 04:28:57 33° SSW 04:32:17 10° S
NATO 3D Rocket 4.3 04:27:41 44° N 04:27:41 44° N 04:33:52 10° ENE
Cosmos 2221 3.9 04:30:32 31° S 04:30:32 31° S 04:32:50 10° S
Cosmos 1842 Rocket 4.2 04:32:05 47° S 04:32:05 47° S 04:35:14 10° S
COSMOS 2455 2.9 04:32:00 56° SW 04:32:00 56° SW 04:37:27 10° S
Cosmos 540 Rocket 3.3 04:34:11 75° NNW 04:34:39 90° SSW 04:39:48 10° SSE
FUSE 3.9 04:37:39 65° SW 04:38:28 83° SSE 04:43:51 10° ENE
Cosmos 1900 4.4 04:42:26 45° N 04:43:57 77° ENE 04:49:02 10° SSE
Cosmos 2263 4.0 04:39:12 10° SSW 04:44:48 74° WNW 04:50:29 10° NNE
BREEZE-M R/B 3.9 04:46:44 28° NE 04:47:09 29° NE 04:50:54 10° ESE
Meteor 2-13 Rocket 4.3 04:47:51 10° S 04:54:00 86° W 05:00:07 10° N
Cosmos 2369 Rocket 3.7 04:59:44 18° NNW 04:59:44 18° NNW 05:01:23 10° N
Cosmos 1464 Rocket 4.2 04:54:44 34° NW 04:56:50 47° W 05:02:41 10° SSW
Cosmos 1503 Rocket 4.0 04:54:43 10° S 04:59:55 86° E 05:05:11 10° NNE
Tiangong 3.7 05:01:19 11° SSW 05:01:19 11° SSW 05:01:42 10° SSW
Okean 3 Rocket 4.2 05:00:41 10° S 05:05:06 58° E 05:09:32 10° NNE
Cosmos 1486 Rocket 4.4 05:02:24 10° SW 05:07:18 38° WNW 05:12:11 10° N
Cosmos 1862 3.5 05:04:29 10° S 05:08:24 72° E 05:12:19 10° N
Hubble Space Telescope 2.4 05:08:06 20° N 05:09:24 23° NNE 05:12:44 10° ENE
Meteor 1-31 Rocket 2.7 05:09:08 10° NNE 05:13:03 86° ESE 05:16:58 10° S
GPS 2-18 Rocket1 3.6 05:12:19 34° NW 05:13:36 48° N 05:17:25 10° E
Cosmos 1656 Rocket 4.1 05:09:15 10° SW 05:14:06 34° WNW 05:18:58 10° N
Cosmos 1766 Rocket 3.4 05:10:32 10° S 05:14:54 86° W 05:19:14 10° N
Cosmos 1782 3.1 05:12:06 10° N 05:16:00 65° E 05:19:53 10° SSE
Milstar 3 4.0 05:07:27 22° WNW 05:17:50 65° SSW 05:26:08 10° SE
H-2A R/B 3.0 05:18:07 10° N 05:21:41 43° WNW 05:25:18 10° SSW
CZ-2C R/B 3.9 05:17:03 10° SE 05:22:18 43° ENE 05:27:27 10° N
YAOGAN 6 3.3 05:23:14 13° NNW 05:25:57 31° WNW 05:29:09 10° SW
Cosmos 841 Rocket 4.3 05:24:02 20° WNW 05:26:31 30° W 05:31:02 10° SSW
ATLAS 2AS CENTAUR RB 4.4 05:03:29 16° W 05:27:07 45° SSW 05:32:49 10° SE
Uosat 12 SS-18 rocket 4.4 05:23:48 10° SW 05:28:02 48° WNW 05:32:57 10° N
MOS 1-B Rocket 4.4 05:21:04 10° SSE 05:28:18 78° ENE 05:34:30 10° N
COSMO-SKYMED 1 3.4 05:29:39 10° SSE 05:33:52 52° ENE 05:38:03 10° N
Iridium 2 4.2 05:31:28 10° SSW 05:34:57 36° W 05:38:27 10° NNW
Cosmos 2098 Rocket 3.5 05:35:05 10° SW 05:37:45 24° W 05:40:48 10° NNW
ATLAS 3B R/B 2.5 05:31:44 10° SSW 05:38:08 78° WNW 05:44:40 10° NNE
Delta 168 4.4 05:38:12 12° W 05:43:40 58° NNW 05:52:33 10° ENE
Centaur D-1A AC-31 2.5 05:42:07 12° NW 05:45:43 60° NNE 05:59:58 10° ESE
CZ-4B R/B 3.2 05:43:01 10° NNE 05:46:34 61° ESE 05:50:14 10° S
Envisat 3.9 05:42:35 10° NNW 05:46:47 27° WNW 05:50:59 10° SW
Cosmos 2082 Rocket 3.6 05:44:27 12° WNW 05:47:21 17° WSW 05:50:54 10° SW
Cosmos 2279 Rocket 4.3 05:42:02 10° N 05:48:13 75° E 05:54:23 10° S
Cosmos 1174 4.0 05:45:49 10° SW 05:48:49 30° WNW 05:51:32 10° N
Cosmos 1408 Rocket 3.4 05:45:00 10° S 05:49:18 77° W 05:53:35 10° N
BREEZE-M DEB (TANK) 2.8 05:46:56 10° WSW 05:49:40 44° NW 05:53:29 10° NNE
OAO 2 Rocket 3.7 05:47:03 10° WSW 05:52:03 45° NNW 05:56:56 10° NE
Cosmos 1743 Rocket 4.3 05:53:07 10° S 05:57:28 59° E 06:01:47 10° NNE
NOAA 12 4.3 05:52:27 10° NNE 05:57:41 79° ESE 06:02:54 10° S
Cosmos 1340 Rocket 3.1 05:55:31 10° S 05:59:23 71° E 06:03:17 10° N
SEDSat Delta rocket 4.3 05:54:39 10° SW 06:01:08 65° SSE 06:06:56 10° ENE
NOAA 11 4.4 05:57:46 10° N 06:03:04 51° WNW 06:08:22 10° SSW
Cosmos 1634 Rocket 4.4 05:58:47 10° NNW 06:04:33 41° W 06:10:17 10° SSW
